Weather in Kalinino

Russia / Jewish Autonomous Oblast     48°00′33″N   132°35′47″E
temp.,
°C
wind,
m/s
gust,
m/s
humid.,
%
clouds,
%
prec.,
mm/h
press.,
hPa
HPBL,
m
11 may, tue
tue1101:00+7wnw1290100 0.1 101475
04:00+7ene0095100 1.1 101542
07:00+5e3687100 1.2 1017395
10:00+6e2483100 1.5 1018342
13:00+7ese2282100 0.1 1019454
16:00+11se017069 0.1 1017834
19:00+11ese226677 0.0 1017731
22:00+8ene33836 0.0 101857
12 may, wed
wed1201:00+6e359090 0.0 1017100
04:00+5e369240 0.0 1017130
07:00+6e4988100 0.0 1015255
10:00+11se71168100 0.0 1013951
13:00+11sse71074100 0.3 1011876
16:00+8sse61294100 5.3 1009696
19:00+9s6129095 3.0 1008723
22:00+9sse61293100 3.2 1008583
13 may, thu
thu1301:00+8se4993100 0.4 1007511
04:00+8sse51093100 0.7 1006573
07:00+8sse3109433 0.0 1006429
10:00+14ssw5106565 0.1 10051453
13:00+15wsw585492 0.3 10052012
16:00+16wsw71051100 0.4 10052078
19:00+14w4862100 0.1 1006540
22:00+11wnw227821 0.1 100829
14 may, fri
fri1401:00+9w33835 0.0 100945
04:00+8wnw23870 0.0 100945
07:00+9nw23841 0.0 101096
10:00+15nw125892 0.0 1011468
13:00+19s334311 0.0 10091099
16:00+22sse3536100 0.0 10071612
19:00+18ese4954100 0.0 1006231
22:00+17sse51556100 0.0 1005508
15 may, sat
sat1501:00+15s51267100 0.3 1002500
04:00+12sse61594100 7.0 999627
07:00+14wsw5994100 7.5 998522
10:00+15w7116786 7.5 10001139
13:00+18wsw81144100 0.0 10002503
16:00+18w7124384 0.0 10002678
19:00+15wnw5115386 0.0 10021228
22:00+12wnw39654 0.0 1003273